Freeport, IL

8:29 PM CST on December 09, 2019 (GMT -0600)
Albertus

Weather History for KFEP - November, 2019

Change the Weather History Date:

Saturday, November 16, 2019

  Actual Average Record
Temperature  
Mean Temperature 28 °F -  
Max Temperature 38 °F 46 °F 68 °F (1990)
Min Temperature 18 °F 29 °F 8 °F (2014)
Degree Days  
Heating Degree Days 37    
Moisture  
Dew Point 25 °F    
Average Humidity 89    
Maximum Humidity 100    
Minimum Humidity 69    
Precipitation  
Precipitation 0.00 in - - ()
Sea Level Pressure  
Sea Level Pressure 30.32 in    
Wind  
Wind Speed 3 mph (SE)    
Max Wind Speed 10 mph    
Max Gust Speed 16 mph    
Visibility 5 miles    
Events      
Averages and records for this station are not official NWS values.
T = Trace of Precipitation, MM = Missing Value Source: NWS Daily Summary

Daily Weather History Graph

Daily Weather History Graph

Search for Another Location

Airport or City:

Astronomy

Nov. 16, 2019 Rise Set
Actual Time 6:49 AM CST 4:35 PM CST
Civil Twilight 6:19 AM CST 5:06 PM CST
Nautical Twilight 5:45 AM CST 5:40 PM CST
Astronomical Twilight 5:12 AM CST 6:13 PM CST
Moon 8:06 PM CST (11/16) 10:45 AM CST (11/16)
Length of Visible Light 10h 46m
Length of Day
9h 46m
Waning Gibbous, 82% of the Moon is Illuminated
Nov 16
Waning Gibbous
Nov 19
Last Quarter
Nov 26
New
Dec 4
First Quarter
Dec 11
Full

Hourly Weather History & Observations

Time (CST) Temp. Windchill Dew Point Humidity Pressure Visibility Wind Dir Wind Speed Gust Speed Precip Events Conditions
12:15 AM 23.2 °F - 22.8 °F 99% 30.42 in 5.0 mi Calm Calm - N/A   Clear
12:35 AM 21.2 °F - 21.2 °F 100% 30.42 in 4.0 mi Calm Calm - N/A   Clear
12:55 AM 22.1 °F - 22.1 °F 100% 30.41 in 5.0 mi Calm Calm - N/A   Clear
1:15 AM 21.0 °F - 21.0 °F 100% 30.41 in 4.0 mi Calm Calm - N/A   Clear
1:30 AM 19.9 °F - 19.9 °F 100% 30.41 in 2.5 mi Calm Calm - N/A   Clear
1:55 AM 20.7 °F - 20.5 °F 99% 30.41 in 2.5 mi Calm Calm - N/A   Clear
2:15 AM 19.4 °F - 19.2 °F 99% 30.41 in 1.8 mi Calm Calm - N/A   Mist
2:35 AM 20.3 °F - 20.3 °F 100% 30.41 in 2.0 mi Calm Calm - N/A   Clear
2:55 AM 21.0 °F - 21.0 °F 100% 30.41 in 2.5 mi Calm Calm - N/A   Clear
3:15 AM 18.5 °F - 18.1 °F 98% 30.41 in 2.5 mi Calm Calm - N/A   Clear
3:35 AM 19.0 °F - 18.5 °F 98% 30.40 in 2.0 mi Calm Calm - N/A   Clear
3:55 AM 19.6 °F - 19.2 °F 99% 30.40 in 2.0 mi Calm Calm - N/A   Clear
4:15 AM 21.6 °F - 21.4 °F 99% 30.41 in 1.8 mi Calm Calm - N/A   Mist
4:35 AM 18.1 °F - 17.4 °F 97% 30.41 in 2.0 mi Calm Calm - N/A   Clear
4:55 AM 18.0 °F - 17.4 °F 98% 30.41 in 2.5 mi Calm Calm - N/A   Clear
5:15 AM 18.1 °F - 17.8 °F 98% 30.41 in 2.5 mi Calm Calm - N/A   Clear
5:35 AM 18.9 °F 13.7 °F 18.5 °F 98% 30.41 in 3.0 mi East 3.5 mph - N/A   Clear
5:55 AM 19.2 °F 14.1 °F 18.9 °F 98% 30.41 in 2.5 mi East 3.5 mph - N/A   Clear
6:15 AM 18.9 °F - 18.7 °F 99% 30.41 in 2.0 mi Calm Calm - N/A   Clear
6:35 AM 18.7 °F - 18.3 °F 98% 30.41 in 2.0 mi Calm Calm - N/A   Clear
6:55 AM 18.0 °F - 17.4 °F 98% 30.41 in 1.8 mi Calm Calm - N/A   Mist
7:15 AM 19.4 °F - 19.4 °F 100% 30.41 in 1.2 mi Calm Calm - N/A   Mist
7:35 AM 20.3 °F - 20.3 °F 100% 30.41 in 2.0 mi Calm Calm - N/A   Clear
7:55 AM 22.6 °F - 22.6 °F 100% 30.41 in 1.8 mi Calm Calm - N/A   Mist
8:15 AM 22.8 °F - 22.8 °F 100% 30.41 in 2.0 mi Calm Calm - N/A   Clear
8:35 AM 24.3 °F - 24.3 °F 100% 30.41 in 2.0 mi Calm Calm - N/A   Clear
8:55 AM 24.8 °F - 24.8 °F 100% 30.40 in 2.0 mi Calm Calm - N/A   Clear
9:15 AM 26.4 °F - 26.4 °F 100% 30.40 in 2.0 mi Calm Calm - N/A   Clear
9:35 AM 28.6 °F 23.5 °F 28.6 °F 100% 30.40 in 3.0 mi SE 4.6 mph - N/A   Clear
9:55 AM 30.2 °F 23.4 °F 30.2 °F 100% 30.40 in 5.0 mi SE 6.9 mph - N/A   Clear
10:35 AM 33.4 °F 27.3 °F 29.7 °F 86% 30.39 in 7.0 mi SSE 6.9 mph - N/A   Clear
10:55 AM 34.9 °F 27.7 °F 29.7 °F 81% 30.38 in 7.0 mi SSE 9.2 mph - N/A   Clear
11:15 AM 35.8 °F 28.3 °F 29.3 °F 77% 30.37 in 7.0 mi SSE 10.4 mph 16.1 mph N/A   Clear
11:35 AM 36.1 °F 28.7 °F 29.1 °F 76% 30.36 in 7.0 mi SSE 10.4 mph - N/A   Clear
11:55 AM 36.5 °F 29.7 °F 29.3 °F 75% 30.35 in 7.0 mi SSE 9.2 mph - N/A   Clear
12:15 PM 37.4 °F 30.8 °F 29.5 °F 73% 30.34 in 7.0 mi SSE 9.2 mph - N/A   Clear
12:35 PM 37.4 °F 30.3 °F 29.5 °F 73% 30.33 in 7.0 mi SE 10.4 mph - N/A   Clear
12:55 PM 37.4 °F 30.8 °F 29.5 °F 73% 30.33 in 7.0 mi SSE 9.2 mph - N/A   Clear
1:15 PM 37.6 °F 31.0 °F 29.1 °F 72% 30.32 in 10.0 mi SE 9.2 mph - N/A   Clear
1:35 PM 37.4 °F 30.3 °F 28.9 °F 71% 30.30 in 10.0 mi SE 10.4 mph - N/A   Clear
1:55 PM 37.4 °F 32.1 °F 28.8 °F 71% 30.30 in 7.0 mi SSE 6.9 mph - N/A   Clear
2:15 PM 38.1 °F 32.3 °F 29.1 °F 70% 30.29 in 10.0 mi SSE 8.1 mph - N/A   Clear
2:35 PM 38.5 °F 33.4 °F 29.3 °F 70% 30.28 in 10.0 mi SSE 6.9 mph - N/A   Clear
2:55 PM 38.1 °F 32.3 °F 28.9 °F 70% 30.27 in 10.0 mi SE 8.1 mph - N/A   Clear
3:15 PM 38.7 °F 32.4 °F 29.3 °F 69% 30.26 in 7.0 mi SE 9.2 mph - N/A   Clear
3:35 PM 38.3 °F 31.9 °F 28.9 °F 69% 30.25 in 10.0 mi SE 9.2 mph - N/A   Clear
3:55 PM 37.6 °F 34.0 °F 28.9 °F 71% 30.25 in 7.0 mi SE 4.6 mph - N/A   Clear
4:15 PM 36.1 °F 33.5 °F 28.9 °F 75% 30.25 in 5.0 mi ESE 3.5 mph - N/A   Haze
4:35 PM 33.8 °F 30.8 °F 28.4 °F 81% 30.25 in 7.0 mi ESE 3.5 mph - N/A   Clear
4:55 PM 32.2 °F 28.9 °F 28.2 °F 85% 30.24 in 7.0 mi ESE 3.5 mph - N/A   Clear
5:15 PM 31.8 °F 26.2 °F 27.5 °F 84% 30.24 in 7.0 mi ESE 5.8 mph - N/A   Clear
5:35 PM 30.2 °F 22.6 °F 27.9 °F 91% 30.24 in 7.0 mi ESE 8.1 mph - N/A   Clear
5:55 PM 30.2 °F 22.6 °F 27.9 °F 91% 30.23 in 7.0 mi SE 8.1 mph - N/A   Clear
6:15 PM 30.4 °F 22.9 °F 27.3 °F 88% 30.23 in 7.0 mi SE 8.1 mph - N/A   Clear
6:35 PM 31.1 °F 25.4 °F 27.5 °F 87% 30.23 in 7.0 mi SE 5.8 mph - N/A   Clear
6:55 PM 30.2 °F 24.3 °F 27.5 °F 90% 30.22 in 7.0 mi SE 5.8 mph - N/A   Clear
7:15 PM 30.4 °F 24.5 °F 27.3 °F 88% 30.22 in 7.0 mi SE 5.8 mph - N/A   Clear
7:35 PM 30.2 °F 24.3 °F 27.1 °F 88% 30.21 in 7.0 mi SE 5.8 mph - N/A   Clear
7:55 PM 30.6 °F 23.8 °F 27.3 °F 88% 30.21 in 7.0 mi SSE 6.9 mph - N/A   Clear
8:15 PM 31.8 °F 23.9 °F 27.9 °F 85% 30.20 in 7.0 mi SSE 9.2 mph - N/A   Clear
8:35 PM 31.5 °F 24.2 °F 27.7 °F 86% 30.20 in 7.0 mi SE 8.1 mph - N/A   Clear
8:55 PM 31.5 °F 23.5 °F 27.9 °F 87% 30.19 in 7.0 mi SE 9.2 mph - N/A   Clear
9:15 PM 30.9 °F 24.3 °F 27.7 °F 88% 30.21 in 7.0 mi SSE 6.9 mph - N/A   Clear
9:35 PM 30.7 °F 24.1 °F 28.0 °F 90% 30.21 in 7.0 mi SE 6.9 mph - N/A   Clear
9:55 PM 30.4 °F 23.6 °F 28.4 °F 92% 30.20 in 7.0 mi SE 6.9 mph - N/A   Clear
10:35 PM 30.2 °F 25.4 °F 28.8 °F 94% 30.19 in 7.0 mi SE 4.6 mph - N/A   Clear
10:55 PM 30.6 °F 25.8 °F 28.9 °F 94% 30.19 in 7.0 mi SE 4.6 mph - N/A   Clear
11:15 PM 31.1 °F 25.4 °F 29.3 °F 93% 30.19 in 7.0 mi SE 5.8 mph - N/A   Clear
11:35 PM 31.1 °F 26.4 °F 29.3 °F 93% 30.18 in 7.0 mi SSE 4.6 mph - N/A   Clear
11:55 PM 31.3 °F 26.6 °F 29.5 °F 93% 30.18 in 7.0 mi SSE 4.6 mph - N/A   Clear